NOAA NWS Hourly Roundups by Site

Regional Weather Roundup for State College, PA

To Select Another Site Choose from List

Select Site:  

903
ASUS41 KCTP 230510
RWRCTP

REGIONAL WEATHER ROUNDUP
NATIONAL WEATHER SERVICE STATE COLLEGE PA
100 AM EDT THU MAY 23 2024

Note: "fair" indicates few or no clouds below 12,000 feet with no
significant weather and/or obstructions to visibility.

* = STATION THAT DOES NOT REPORT PRECIPITATION /E.G. RAIN...SNOW...ETC/
    THUNDER OR FOG.

PAZ002>004-007>009-013>016-020>023-029>032-230600-
WESTERN PENNSYLVANIA

CITY           SKY/WX    TMP DP  RH WIND       PRES   REMARKS
ERIE           CLOUDY    67  62  84 SW7       29.85S
MEADVILLE      CLOUDY    66  57  72 SW6       29.85F
FRANKLIN       CLOUDY    68  67  96 SW6       29.89F
NEW CASTLE     CLOUDY    69  59  70 VRB3      29.88F
BEAVER COUNTY  CLOUDY    73  64  73 W7        29.90F
BUTLER         CLOUDY    72  66  81 SW8       29.90F
PITTSBURGH INT CLOUDY    74  64  71 SW8       29.89F
PITTSBURGH     LGT RAIN  73  64  73 S7        29.89F
INDIANA*       CLOUDY    72  64  78 SW7       29.94S
LATROBE        CLOUDY    73  64  73 S8        29.91F
CONNELLSVILLE  NOT AVBL
WASHINGTON CO* CLOUDY    72  65  78 SW6       29.94S
$$

PAZ004>006-010>012-017>019-024>028-033>037-041-042-045-046-049>053-230600-
CENTRAL PENNSYLVANIA

CITY           SKY/WX    TMP DP  RH WIND       PRES   REMARKS
BRADFORD       CLOUDY    71  63  75 VRB6      29.90S
ST MARYS       CLOUDY    68  61  77 SW6       29.95S
DUBOIS         CLOUDY    70  61  73 SW7       29.91S
CLEARFIELD     CLOUDY    70  61  73 SW5       29.91R
JOHNSTOWN      MOCLDY    68  59  73 SW6       29.95F
SOMERSET       MOCLDY    64  59  82 SW8       29.97S
ALTOONA        MOCLDY    71  59  65 S6        29.92F
STATE COLLEGE  NOT AVBL
REEDSVILLE     CLOUDY    66  64  94 CALM      29.88F FOG
WELLSBORO      MOCLDY    64  64 100 SW12      29.89S
WILLIAMSPORT   MOCLDY    67  65  93 CALM      29.86F
SELINSGROVE    MOCLDY    65  65 100 CALM      29.88F FOG
FT INDIANTOWN    N/A     68  67  95 CALM      29.87F
CAPITAL CITY   PTCLDY    77  67  71 CALM      29.88F
HARRISBURG     PTCLDY    73  69  87 S6        29.87F
YORK           PTCLDY    74  66  76 CALM      29.89F
$$

PAZ038>040-043-044-047-048-054-055-060>062-067>071-230600-
EASTERN PENNSYLVANIA

CITY           SKY/WX    TMP DP  RH WIND       PRES   REMARKS
TOWANDA        CLEAR     64  64 100 CALM      29.88F
SCRANTON       PTCLDY    67  64  90 CALM      29.89S
MOUNT POCONO   PTCLDY    66  64  93 SW6       29.93F
HAZLETON         N/A     68  64  88 CALM      29.95F
LEHIGHTON      FOG       68  64  88 CALM      29.91S VSB 1/4
ALLENTOWN      PTCLDY    72  64  76 SW5       29.89S
QN CITY/ALNTWN PTCLDY    72  64  78 S6        29.90F
QUAKERTOWN*    PTCLDY    70  68  94 CALM      29.91S
PERKASIE*      PTCLDY    70  68  94 CALM      29.92S
DOYLESTOWN     PTCLDY    73  64  73 S6        29.90S
READING        PTCLDY    74  64  71 S5        29.88S
LANCASTER      CLEAR     71  65  81 S3        29.89S
COATESVILLE    CLEAR     70  70 100 CALM      29.92F
WEST CHESTER   CLEAR     72  63  73 CALM      29.92S
POTTSTOWN      PTCLDY    74  64  71 CALM      29.92S
BLUE BELL      PTCLDY    72  64  75 SW5       29.91S
NORTH PHILA    PTCLDY    73  62  68 VRB3      29.92S
PHILADELPHIA   PTCLDY    71  63  75 S7        29.91S
$$



 

View Past Reports for State College, PA.

Products Courtesy of NOAA-NWS
NWS Information Parsing Script by Ken True at Saratoga Weather - Script by SE Lincoln Weather.